Terminal Aerodrome Forecast
Issued by NWS San Angelo, TX

Home | Current Version | Previous Version | Text Only | Print | Product List | Glossary On
Versions: 1 2 3 4 5 6 7 8 9 10 11 12 13 14 15
816
FTUS44 KSJT 261402 AAB
TAFSJT
TAF AMD
KSJT 261402Z 2614/2712 VRB03KT P6SM SCT250
     FM261800 08009KT P6SM SCT060 BKN250
     FM262000 08009KT P6SM VCTS BKN060CB
     FM270200 VRB05KT P6SM SCT250=

USA.gov is the U.S. government's official web portal to all federal, state and local government web resources and services.